Year,Month,Day,Hour,Minute,Value (Times are PST for windgust in km/hr)
2015,08,30,00,00,6.40
2015,08,30,00,01,6.40
2015,08,30,00,02,4.80
2015,08,30,00,03,4.80
2015,08,30,00,04,3.20
2015,08,30,00,05,1.60
2015,08,30,00,06,4.80
2015,08,30,00,07,4.80
2015,08,30,00,08,3.20
2015,08,30,00,09,3.20
2015,08,30,00,10,3.20
2015,08,30,00,11,3.20
2015,08,30,00,12,4.80
2015,08,30,00,13,3.20
2015,08,30,00,14,6.40
2015,08,30,00,15,6.40
2015,08,30,00,16,6.40
2015,08,30,00,17,6.40
2015,08,30,00,18,6.40
2015,08,30,00,19,6.40
2015,08,30,00,20,6.40
2015,08,30,00,21,4.80
2015,08,30,00,22,4.80
2015,08,30,00,23,3.20
2015,08,30,00,25,3.20
2015,08,30,00,26,4.80
2015,08,30,00,27,3.20
2015,08,30,00,28,4.80
2015,08,30,00,29,12.90
2015,08,30,00,30,11.30
2015,08,30,00,31,9.60
2015,08,30,00,32,8.10
2015,08,30,00,33,6.40
2015,08,30,00,34,3.20
2015,08,30,00,35,4.80
2015,08,30,00,36,3.20
2015,08,30,00,37,4.80
2015,08,30,00,38,3.20
2015,08,30,00,40,4.80
2015,08,30,00,41,6.40
2015,08,30,00,42,4.80
2015,08,30,00,43,8.10
2015,08,30,00,44,4.80
2015,08,30,00,45,14.50
2015,08,30,00,46,11.30
2015,08,30,00,47,16.10
2015,08,30,00,48,11.30
2015,08,30,00,49,11.30
2015,08,30,00,50,16.10
2015,08,30,00,51,11.30
2015,08,30,00,52,9.60
2015,08,30,00,53,11.30
2015,08,30,00,54,9.60
2015,08,30,00,55,6.40
2015,08,30,00,56,6.40
2015,08,30,00,57,6.40
2015,08,30,00,58,16.10
2015,08,30,00,59,9.60
2015,08,30,01,00,9.60
2015,08,30,01,01,6.40
2015,08,30,01,02,6.40
2015,08,30,01,03,8.10
2015,08,30,01,04,6.40
2015,08,30,01,05,8.10
2015,08,30,01,06,8.10
2015,08,30,01,07,4.80
2015,08,30,01,08,4.80
2015,08,30,01,09,8.10
2015,08,30,01,10,9.60
2015,08,30,01,11,8.10
2015,08,30,01,12,4.80
2015,08,30,01,13,8.10
2015,08,30,01,14,8.10
2015,08,30,01,15,6.40
2015,08,30,01,16,8.10
2015,08,30,01,17,8.10
2015,08,30,01,18,6.40
2015,08,30,01,19,6.40
2015,08,30,01,20,4.80
2015,08,30,01,21,3.20
2015,08,30,01,22,4.80
2015,08,30,01,23,4.80
2015,08,30,01,24,4.80
2015,08,30,01,25,4.80
2015,08,30,01,26,4.80
2015,08,30,01,27,3.20
2015,08,30,01,28,1.60
2015,08,30,01,32,4.80
2015,08,30,01,33,3.20
2015,08,30,01,34,3.20
2015,08,30,01,35,3.20
2015,08,30,01,36,1.60
2015,08,30,01,37,1.60
2015,08,30,01,40,3.20
2015,08,30,01,41,1.60
2015,08,30,01,42,1.60
2015,08,30,01,43,4.80
2015,08,30,01,44,6.40
2015,08,30,01,45,4.80
2015,08,30,01,46,3.20
2015,08,30,01,49,3.20
2015,08,30,01,50,3.20
2015,08,30,01,51,3.20
2015,08,30,01,52,3.20
2015,08,30,01,54,1.60
2015,08,30,01,55,3.20
2015,08,30,01,56,4.80
2015,08,30,01,57,3.20
2015,08,30,01,58,3.20
2015,08,30,01,59,1.60
2015,08,30,02,03,4.80
2015,08,30,02,04,3.20
2015,08,30,02,05,3.20
2015,08,30,02,06,1.60
2015,08,30,02,07,3.20
2015,08,30,02,08,3.20
2015,08,30,02,09,3.20
2015,08,30,02,15,3.20
2015,08,30,02,16,1.60
2015,08,30,02,18,3.20
2015,08,30,02,19,3.20
2015,08,30,02,20,3.20
2015,08,30,02,21,4.80
2015,08,30,02,22,1.60
2015,08,30,02,25,4.80
2015,08,30,02,26,6.40
2015,08,30,02,27,4.80
2015,08,30,02,28,3.20
2015,08,30,02,29,6.40
2015,08,30,02,30,8.10
2015,08,30,02,31,8.10
2015,08,30,02,32,8.10
2015,08,30,02,33,3.20
2015,08,30,02,34,4.80
2015,08,30,02,35,4.80
2015,08,30,02,36,6.40
2015,08,30,02,37,3.20
2015,08,30,02,38,4.80
2015,08,30,02,39,6.40
2015,08,30,02,40,8.10
2015,08,30,02,41,6.40
2015,08,30,02,42,4.80
2015,08,30,02,43,6.40
2015,08,30,02,44,6.40
2015,08,30,02,45,6.40
2015,08,30,02,46,11.30
2015,08,30,02,47,14.50
2015,08,30,02,48,14.50
2015,08,30,02,49,9.60
2015,08,30,02,50,9.60
2015,08,30,02,51,6.40
2015,08,30,02,52,6.40
2015,08,30,02,53,8.10
2015,08,30,02,54,6.40
2015,08,30,02,55,3.20
2015,08,30,02,56,1.60
2015,08,30,02,58,1.60
2015,08,30,02,59,4.80
2015,08,30,03,00,1.60
2015,08,30,03,01,6.40
2015,08,30,03,02,4.80
2015,08,30,03,03,1.60
2015,08,30,03,07,1.60
2015,08,30,03,08,1.60
2015,08,30,03,11,4.80
2015,08,30,03,12,4.80
2015,08,30,03,13,1.60
2015,08,30,03,14,1.60
2015,08,30,03,15,4.80
2015,08,30,03,16,4.80
2015,08,30,03,17,4.80
2015,08,30,03,18,8.10
2015,08,30,03,19,6.40
2015,08,30,03,20,9.60
2015,08,30,03,21,8.10
2015,08,30,03,22,9.60
2015,08,30,03,23,8.10
2015,08,30,03,24,9.60
2015,08,30,03,25,9.60
2015,08,30,03,26,9.60
2015,08,30,03,27,14.50
2015,08,30,03,28,8.10
2015,08,30,03,29,9.60
2015,08,30,03,30,6.40
2015,08,30,03,31,8.10
2015,08,30,03,32,6.40
2015,08,30,03,33,9.60
2015,08,30,03,34,9.60
2015,08,30,03,35,11.30
2015,08,30,03,36,11.30
2015,08,30,03,37,11.30
2015,08,30,03,38,16.10
2015,08,30,03,39,9.60
2015,08,30,03,40,8.10
2015,08,30,03,41,8.10
2015,08,30,03,42,8.10
2015,08,30,03,43,9.60
2015,08,30,03,44,8.10
2015,08,30,03,45,9.60
2015,08,30,03,46,6.40
2015,08,30,03,47,8.10
2015,08,30,03,48,6.40
2015,08,30,03,49,6.40
2015,08,30,03,50,8.10
2015,08,30,03,51,6.40
2015,08,30,03,52,9.60
2015,08,30,03,53,4.80
2015,08,30,03,54,4.80
2015,08,30,03,55,6.40
2015,08,30,03,56,1.60
2015,08,30,04,02,3.20
2015,08,30,04,03,3.20
2015,08,30,04,04,3.20
2015,08,30,04,24,1.60
2015,08,30,04,27,1.60
2015,08,30,04,28,1.60
2015,08,30,04,29,1.60
2015,08,30,04,30,1.60
2015,08,30,04,31,1.60
2015,08,30,04,38,3.20
2015,08,30,04,39,6.40
2015,08,30,04,40,3.20
2015,08,30,04,41,1.60
2015,08,30,04,42,3.20
2015,08,30,04,43,1.60
2015,08,30,04,47,1.60
2015,08,30,04,51,1.60
2015,08,30,04,52,3.20
2015,08,30,04,53,3.20
2015,08,30,04,54,1.60
2015,08,30,04,56,4.80
2015,08,30,04,57,6.40
2015,08,30,04,58,3.20
2015,08,30,05,02,3.20
2015,08,30,05,03,4.80
2015,08,30,05,04,3.20
2015,08,30,05,05,3.20
2015,08,30,05,06,3.20
2015,08,30,05,07,1.60
2015,08,30,05,08,4.80
2015,08,30,05,09,4.80
2015,08,30,05,10,1.60
2015,08,30,05,17,1.60
2015,08,30,05,18,1.60
2015,08,30,05,19,6.40
2015,08,30,05,20,3.20
2015,08,30,05,21,3.20
2015,08,30,05,22,3.20
2015,08,30,05,23,3.20
2015,08,30,05,24,1.60
2015,08,30,05,25,1.60
2015,08,30,05,35,1.60
2015,08,30,05,39,3.20
2015,08,30,05,45,1.60
2015,08,30,05,51,1.60
2015,08,30,05,55,3.20
2015,08,30,05,56,3.20
2015,08,30,05,57,3.20
2015,08,30,05,58,3.20
2015,08,30,05,59,3.20
2015,08,30,06,08,1.60
2015,08,30,06,25,3.20
2015,08,30,06,26,3.20
2015,08,30,06,27,4.80
2015,08,30,06,28,4.80
2015,08,30,06,29,3.20
2015,08,30,06,33,3.20
2015,08,30,06,34,3.20
2015,08,30,06,35,4.80
2015,08,30,06,36,6.40
2015,08,30,06,37,6.40
2015,08,30,06,38,3.20
2015,08,30,06,47,3.20
2015,08,30,06,48,3.20
2015,08,30,06,49,3.20
2015,08,30,06,50,3.20
2015,08,30,06,51,1.60
2015,08,30,06,52,1.60
2015,08,30,06,53,1.60
2015,08,30,06,54,3.20
2015,08,30,06,55,4.80
2015,08,30,06,56,3.20
2015,08,30,06,57,3.20
2015,08,30,06,58,1.60
2015,08,30,07,00,1.60
2015,08,30,07,01,1.60
2015,08,30,07,10,3.20
2015,08,30,07,11,1.60
2015,08,30,07,12,1.60
2015,08,30,07,13,1.60
2015,08,30,07,14,3.20
2015,08,30,07,15,3.20
2015,08,30,07,16,1.60
2015,08,30,07,17,1.60
2015,08,30,07,18,4.80
2015,08,30,07,19,4.80
2015,08,30,07,20,3.20
2015,08,30,07,21,1.60
2015,08,30,07,22,3.20
2015,08,30,07,23,3.20
2015,08,30,07,25,3.20
2015,08,30,07,26,3.20
2015,08,30,07,27,4.80
2015,08,30,07,28,4.80
2015,08,30,07,29,3.20
2015,08,30,07,30,4.80
2015,08,30,07,31,4.80
2015,08,30,07,32,4.80
2015,08,30,07,33,4.80
2015,08,30,07,34,4.80
2015,08,30,07,35,3.20
2015,08,30,07,36,4.80
2015,08,30,07,37,3.20
2015,08,30,07,38,4.80
2015,08,30,07,39,4.80
2015,08,30,07,40,8.10
2015,08,30,07,41,6.40
2015,08,30,07,42,4.80
2015,08,30,07,43,6.40
2015,08,30,07,44,4.80
2015,08,30,07,45,6.40
2015,08,30,07,46,4.80
2015,08,30,07,47,6.40
2015,08,30,07,48,8.10
2015,08,30,07,49,1.60
2015,08,30,07,50,1.60
2015,08,30,07,52,4.80
2015,08,30,07,53,3.20
2015,08,30,07,54,1.60
2015,08,30,07,55,1.60
2015,08,30,07,56,1.60
2015,08,30,07,57,3.20
2015,08,30,07,58,6.40
2015,08,30,07,59,6.40
2015,08,30,08,00,4.80
2015,08,30,08,01,3.20
2015,08,30,08,02,6.40
2015,08,30,08,03,4.80
2015,08,30,08,04,6.40
2015,08,30,08,05,3.20
2015,08,30,08,06,4.80
2015,08,30,08,07,6.40
2015,08,30,08,08,6.40
2015,08,30,08,09,6.40
2015,08,30,08,10,6.40
2015,08,30,08,11,4.80
2015,08,30,08,12,3.20
2015,08,30,08,13,4.80
2015,08,30,08,14,6.40
2015,08,30,08,15,4.80
2015,08,30,08,16,6.40
2015,08,30,08,17,8.10
2015,08,30,08,18,4.80
2015,08,30,08,19,4.80
2015,08,30,08,20,4.80
2015,08,30,08,21,3.20
2015,08,30,08,22,4.80
2015,08,30,08,23,3.20
2015,08,30,08,27,3.20
2015,08,30,08,29,4.80
2015,08,30,08,30,3.20
2015,08,30,08,31,4.80
2015,08,30,08,32,1.60
2015,08,30,08,36,4.80
2015,08,30,08,37,4.80
2015,08,30,08,38,4.80
2015,08,30,08,39,3.20
2015,08,30,08,40,3.20
2015,08,30,08,41,3.20
2015,08,30,08,42,3.20
2015,08,30,08,43,4.80
2015,08,30,08,44,3.20
2015,08,30,08,45,3.20
2015,08,30,08,46,1.60
2015,08,30,08,47,1.60
2015,08,30,08,48,4.80
2015,08,30,08,49,1.60
2015,08,30,08,50,3.20
2015,08,30,08,51,1.60
2015,08,30,08,52,3.20
2015,08,30,08,53,4.80
2015,08,30,08,54,1.60
2015,08,30,08,56,1.60
2015,08,30,08,59,1.60
2015,08,30,09,01,1.60
2015,08,30,09,05,1.60
2015,08,30,09,08,1.60
2015,08,30,09,09,3.20
2015,08,30,09,10,3.20
2015,08,30,09,11,1.60
2015,08,30,09,12,1.60
2015,08,30,09,13,3.20
2015,08,30,09,15,1.60
2015,08,30,09,16,3.20
2015,08,30,09,17,3.20
2015,08,30,09,19,3.20
2015,08,30,09,20,1.60
2015,08,30,09,21,1.60
2015,08,30,09,28,1.60
2015,08,30,09,29,1.60
2015,08,30,09,34,4.80
2015,08,30,09,35,3.20
2015,08,30,09,40,1.60
2015,08,30,09,59,4.80
2015,08,30,10,00,3.20
2015,08,30,10,01,4.80
2015,08,30,10,02,3.20
2015,08,30,10,03,4.80
2015,08,30,10,04,3.20
2015,08,30,10,05,3.20
2015,08,30,10,06,4.80
2015,08,30,10,07,4.80
2015,08,30,10,08,4.80
2015,08,30,10,09,6.40
2015,08,30,10,10,6.40
2015,08,30,10,11,4.80
2015,08,30,10,12,6.40
2015,08,30,10,13,8.10
2015,08,30,10,14,8.10
2015,08,30,10,15,4.80
2015,08,30,10,16,6.40
2015,08,30,10,17,6.40
2015,08,30,10,18,4.80
2015,08,30,10,19,6.40
2015,08,30,10,20,6.40
2015,08,30,10,21,6.40
2015,08,30,10,22,4.80
2015,08,30,10,23,8.10
2015,08,30,10,24,8.10
2015,08,30,10,25,6.40
2015,08,30,10,26,8.10
2015,08,30,10,27,8.10
2015,08,30,10,28,6.40
2015,08,30,10,29,6.40
2015,08,30,10,30,4.80
2015,08,30,10,31,4.80
2015,08,30,10,32,6.40
2015,08,30,10,33,6.40
2015,08,30,10,34,4.80
2015,08,30,10,35,6.40
2015,08,30,10,36,6.40
2015,08,30,10,37,4.80
2015,08,30,10,38,3.20
2015,08,30,10,39,3.20
2015,08,30,10,40,3.20
2015,08,30,10,41,6.40
2015,08,30,10,42,4.80
2015,08,30,10,43,4.80
2015,08,30,10,44,4.80
2015,08,30,10,45,3.20
2015,08,30,10,46,3.20
2015,08,30,10,47,1.60
2015,08,30,10,48,3.20
2015,08,30,10,49,1.60
2015,08,30,10,50,4.80
2015,08,30,10,51,4.80
2015,08,30,10,52,3.20
2015,08,30,10,53,6.40
2015,08,30,10,54,3.20
2015,08,30,10,55,1.60
2015,08,30,10,57,4.80
2015,08,30,10,58,8.10
2015,08,30,10,59,6.40
2015,08,30,11,00,4.80
2015,08,30,11,01,4.80
2015,08,30,11,02,3.20
2015,08,30,11,06,1.60
2015,08,30,11,07,4.80
2015,08,30,11,08,3.20
2015,08,30,11,09,4.80
2015,08,30,11,10,8.10
2015,08,30,11,11,8.10
2015,08,30,11,12,6.40
2015,08,30,11,13,8.10
2015,08,30,11,14,8.10
2015,08,30,11,15,8.10
2015,08,30,11,16,11.30
2015,08,30,11,17,8.10
2015,08,30,11,18,9.60
2015,08,30,11,19,8.10
2015,08,30,11,20,9.60
2015,08,30,11,21,9.60
2015,08,30,11,22,6.40
2015,08,30,11,23,8.10
2015,08,30,11,24,6.40
2015,08,30,11,25,6.40
2015,08,30,11,26,4.80
2015,08,30,11,27,9.60
2015,08,30,11,28,6.40
2015,08,30,11,29,4.80
2015,08,30,11,30,8.10
2015,08,30,11,31,8.10
2015,08,30,11,32,8.10
2015,08,30,11,33,6.40
2015,08,30,11,34,4.80
2015,08,30,11,35,8.10
2015,08,30,11,36,9.60
2015,08,30,11,37,4.80
2015,08,30,11,38,4.80
2015,08,30,11,39,6.40
2015,08,30,11,40,9.60
2015,08,30,11,41,11.30
2015,08,30,11,42,11.30
2015,08,30,11,43,9.60
2015,08,30,11,44,8.10
2015,08,30,11,45,8.10
2015,08,30,11,46,9.60
2015,08,30,11,47,8.10
2015,08,30,11,48,6.40
2015,08,30,11,49,3.20
2015,08,30,11,50,4.80
2015,08,30,11,51,6.40
2015,08,30,11,52,8.10
2015,08,30,11,53,6.40
2015,08,30,11,54,8.10
2015,08,30,11,55,8.10
2015,08,30,11,56,3.20
2015,08,30,11,57,3.20
2015,08,30,11,58,1.60
2015,08,30,11,59,1.60
2015,08,30,12,00,1.60
2015,08,30,12,01,3.20
2015,08,30,12,02,4.80
2015,08,30,12,03,3.20
2015,08,30,12,04,6.40
2015,08,30,12,05,8.10
2015,08,30,12,06,4.80
2015,08,30,12,07,6.40
2015,08,30,12,08,8.10
2015,08,30,12,09,8.10
2015,08,30,12,10,9.60
2015,08,30,12,11,8.10
2015,08,30,12,12,9.60
2015,08,30,12,13,9.60
2015,08,30,12,14,16.10
2015,08,30,12,15,9.60
2015,08,30,12,16,11.30
2015,08,30,12,17,8.10
2015,08,30,12,18,8.10
2015,08,30,12,19,14.50
2015,08,30,12,20,11.30
2015,08,30,12,21,8.10
2015,08,30,12,22,11.30
2015,08,30,12,23,16.10
2015,08,30,12,24,11.30
2015,08,30,12,25,6.40
2015,08,30,12,26,4.80
2015,08,30,12,27,3.20
2015,08,30,12,28,6.40
2015,08,30,12,29,4.80
2015,08,30,12,30,6.40
2015,08,30,12,31,8.10
2015,08,30,12,32,11.30
2015,08,30,12,33,8.10
2015,08,30,12,34,8.10
2015,08,30,12,35,8.10
2015,08,30,12,36,8.10
2015,08,30,12,37,8.10
2015,08,30,12,38,4.80
2015,08,30,12,39,3.20
2015,08,30,12,40,6.40
2015,08,30,12,41,12.90
2015,08,30,12,42,11.30
2015,08,30,12,43,4.80
2015,08,30,12,44,3.20
2015,08,30,12,45,6.40
2015,08,30,12,46,4.80
2015,08,30,12,47,8.10
2015,08,30,12,48,11.30
2015,08,30,12,49,9.60
2015,08,30,12,50,6.40
2015,08,30,12,51,6.40
2015,08,30,12,52,14.50
2015,08,30,12,53,6.40
2015,08,30,12,54,3.20
2015,08,30,12,55,6.40
2015,08,30,12,56,4.80
2015,08,30,12,57,4.80
2015,08,30,12,58,8.10
2015,08,30,12,59,8.10
2015,08,30,13,00,9.60
2015,08,30,13,01,6.40
2015,08,30,13,02,8.10
2015,08,30,13,03,6.40
2015,08,30,13,04,8.10
2015,08,30,13,05,6.40
2015,08,30,13,06,12.90
2015,08,30,13,07,12.90
2015,08,30,13,08,14.50
2015,08,30,13,09,9.60
2015,08,30,13,10,11.30
2015,08,30,13,11,11.30
2015,08,30,13,12,8.10
2015,08,30,13,13,4.80
2015,08,30,13,14,6.40
2015,08,30,13,15,8.10
2015,08,30,13,16,16.10
2015,08,30,13,17,11.30
2015,08,30,13,18,14.50
2015,08,30,13,19,14.50
2015,08,30,13,20,9.60
2015,08,30,13,21,14.50
2015,08,30,13,22,9.60
2015,08,30,13,23,9.60
2015,08,30,13,24,11.30
2015,08,30,13,25,9.60
2015,08,30,13,26,8.10
2015,08,30,13,27,6.40
2015,08,30,13,28,9.60
2015,08,30,13,29,11.30
2015,08,30,13,30,11.30
2015,08,30,13,31,12.90
2015,08,30,13,32,6.40
2015,08,30,13,33,3.20
2015,08,30,13,34,8.10
2015,08,30,13,35,6.40
2015,08,30,13,36,8.10
2015,08,30,13,37,6.40
2015,08,30,13,38,4.80
2015,08,30,13,39,3.20
2015,08,30,13,40,4.80
2015,08,30,13,41,4.80
2015,08,30,13,42,9.60
2015,08,30,13,43,8.10
2015,08,30,13,44,8.10
2015,08,30,13,45,6.40
2015,08,30,13,46,3.20
2015,08,30,13,47,4.80
2015,08,30,13,48,8.10
2015,08,30,13,49,9.60
2015,08,30,13,50,11.30
2015,08,30,13,51,22.50
2015,08,30,13,52,20.90
2015,08,30,13,53,16.10
2015,08,30,13,54,9.60
2015,08,30,13,55,6.40
2015,08,30,13,56,3.20
2015,08,30,13,57,6.40
2015,08,30,13,58,6.40
2015,08,30,13,59,4.80
2015,08,30,14,00,4.80
2015,08,30,14,01,8.10
2015,08,30,14,02,4.80
2015,08,30,14,03,1.60
2015,08,30,14,04,1.60
2015,08,30,14,05,1.60
2015,08,30,14,06,1.60
2015,08,30,14,07,8.10
2015,08,30,14,08,9.60
2015,08,30,14,09,8.10
2015,08,30,14,10,3.20
2015,08,30,14,12,1.60
2015,08,30,14,13,3.20
2015,08,30,14,14,4.80
2015,08,30,14,15,4.80
2015,08,30,14,16,6.40
2015,08,30,14,17,9.60
2015,08,30,14,18,3.20
2015,08,30,14,19,8.10
2015,08,30,14,20,8.10
2015,08,30,14,21,4.80
2015,08,30,14,22,8.10
2015,08,30,14,23,9.60
2015,08,30,14,24,22.50
2015,08,30,14,25,8.10
2015,08,30,14,26,4.80
2015,08,30,14,27,6.40
2015,08,30,14,28,11.30
2015,08,30,14,29,9.60
2015,08,30,14,30,8.10
2015,08,30,14,31,8.10
2015,08,30,14,33,1.60
2015,08,30,14,34,1.60
2015,08,30,14,35,1.60
2015,08,30,14,36,3.20
2015,08,30,14,37,4.80
2015,08,30,14,38,3.20
2015,08,30,14,39,6.40
2015,08,30,14,40,4.80
2015,08,30,14,41,4.80
2015,08,30,14,42,3.20
2015,08,30,14,43,6.40
2015,08,30,14,44,6.40
2015,08,30,14,45,9.60
2015,08,30,14,46,8.10
2015,08,30,14,47,6.40
2015,08,30,14,48,6.40
2015,08,30,14,49,4.80
2015,08,30,14,50,4.80
2015,08,30,14,51,6.40
2015,08,30,14,52,4.80
2015,08,30,14,53,4.80
2015,08,30,14,54,9.60
2015,08,30,14,55,14.50
2015,08,30,14,56,14.50
2015,08,30,14,57,8.10
2015,08,30,14,58,14.50
2015,08,30,14,59,14.50
2015,08,30,15,00,16.10
2015,08,30,15,01,20.90
2015,08,30,15,02,17.70
2015,08,30,15,03,9.60
2015,08,30,15,04,14.50
2015,08,30,15,05,8.10
2015,08,30,15,06,9.60
2015,08,30,15,07,8.10
2015,08,30,15,08,9.60
2015,08,30,15,09,6.40
2015,08,30,15,10,11.30
2015,08,30,15,11,14.50
2015,08,30,15,12,9.60
2015,08,30,15,13,9.60
2015,08,30,15,14,6.40
2015,08,30,15,15,6.40
2015,08,30,15,16,8.10
2015,08,30,15,17,11.30
2015,08,30,15,18,14.50
2015,08,30,15,19,17.70
2015,08,30,15,20,17.70
2015,08,30,15,21,19.30
2015,08,30,15,22,14.50
2015,08,30,15,23,17.70
2015,08,30,15,24,16.10
2015,08,30,15,25,9.60
2015,08,30,15,26,9.60
2015,08,30,15,27,6.40
2015,08,30,15,28,1.60
2015,08,30,15,29,14.50
2015,08,30,15,30,8.10
2015,08,30,15,31,8.10
2015,08,30,15,32,11.30
2015,08,30,15,33,11.30
2015,08,30,15,34,16.10
2015,08,30,15,35,14.50
2015,08,30,15,36,9.60
2015,08,30,15,37,11.30
2015,08,30,15,38,8.10
2015,08,30,15,39,6.40
2015,08,30,15,40,8.10
2015,08,30,15,41,6.40
2015,08,30,15,42,8.10
2015,08,30,15,43,11.30
2015,08,30,15,44,17.70
2015,08,30,15,45,22.50
2015,08,30,15,46,14.50
2015,08,30,15,47,12.90
2015,08,30,15,48,22.50
2015,08,30,15,49,22.50
2015,08,30,15,50,11.30
2015,08,30,15,51,8.10
2015,08,30,15,52,9.60
2015,08,30,15,53,24.20
2015,08,30,15,54,20.90
2015,08,30,15,55,20.90
2015,08,30,15,56,19.30
2015,08,30,15,57,24.20
2015,08,30,15,58,17.70
2015,08,30,15,59,24.20
2015,08,30,16,00,14.50
2015,08,30,16,01,14.50
2015,08,30,16,02,8.10
2015,08,30,16,03,17.70
2015,08,30,16,04,11.30
2015,08,30,16,05,24.20
2015,08,30,16,06,22.50
2015,08,30,16,07,9.60
2015,08,30,16,08,14.50
2015,08,30,16,09,14.50
2015,08,30,16,10,16.10
2015,08,30,16,11,16.10
2015,08,30,16,12,9.60
2015,08,30,16,13,9.60
2015,08,30,16,14,19.30
2015,08,30,16,15,11.30
2015,08,30,16,16,14.50
2015,08,30,16,17,14.50
2015,08,30,16,18,14.50
2015,08,30,16,19,9.60
2015,08,30,16,20,9.60
2015,08,30,16,21,8.10
2015,08,30,16,22,4.80
2015,08,30,16,23,8.10
2015,08,30,16,24,19.30
2015,08,30,16,25,11.30
2015,08,30,16,26,11.30
2015,08,30,16,27,19.30
2015,08,30,16,28,16.10
2015,08,30,16,29,16.10
2015,08,30,16,30,19.30
2015,08,30,16,31,20.90
2015,08,30,16,32,19.30
2015,08,30,16,33,11.30
2015,08,30,16,34,14.50
2015,08,30,16,35,24.20
2015,08,30,16,36,17.70
2015,08,30,16,37,14.50
2015,08,30,16,38,16.10
2015,08,30,16,39,16.10
2015,08,30,16,40,8.10
2015,08,30,16,41,4.80
2015,08,30,16,42,6.40
2015,08,30,16,43,16.10
2015,08,30,16,44,17.70
2015,08,30,16,45,11.30
2015,08,30,16,46,9.60
2015,08,30,16,47,17.70
2015,08,30,16,48,16.10
2015,08,30,16,49,19.30
2015,08,30,16,50,9.60
2015,08,30,16,51,12.90
2015,08,30,16,52,11.30
2015,08,30,16,53,11.30
2015,08,30,16,54,17.70
2015,08,30,16,55,19.30
2015,08,30,16,56,11.30
2015,08,30,16,57,8.10
2015,08,30,16,58,11.30
2015,08,30,16,59,12.90
2015,08,30,17,00,11.30
2015,08,30,17,01,16.10
2015,08,30,17,02,8.10
2015,08,30,17,03,8.10
2015,08,30,17,04,11.30
2015,08,30,17,05,9.60
2015,08,30,17,06,9.60
2015,08,30,17,07,9.60
2015,08,30,17,08,9.60
2015,08,30,17,09,11.30
2015,08,30,17,10,11.30
2015,08,30,17,11,4.80
2015,08,30,17,12,4.80
2015,08,30,17,13,9.60
2015,08,30,17,14,9.60
2015,08,30,17,15,8.10
2015,08,30,17,16,6.40
2015,08,30,17,17,6.40
2015,08,30,17,18,8.10
2015,08,30,17,19,8.10
2015,08,30,17,20,6.40
2015,08,30,17,21,1.60
2015,08,30,17,22,4.80
2015,08,30,17,23,8.10
2015,08,30,17,24,3.20
2015,08,30,17,25,4.80
2015,08,30,17,27,6.40
2015,08,30,17,28,6.40
2015,08,30,17,29,3.20
2015,08,30,17,30,4.80
2015,08,30,17,31,6.40
2015,08,30,17,32,6.40
2015,08,30,17,33,8.10
2015,08,30,17,34,6.40
2015,08,30,17,35,6.40
2015,08,30,17,36,6.40
2015,08,30,17,37,8.10
2015,08,30,17,38,3.20
2015,08,30,17,39,4.80
2015,08,30,17,40,3.20
2015,08,30,17,41,4.80
2015,08,30,17,42,4.80
2015,08,30,17,43,3.20
2015,08,30,17,44,4.80
2015,08,30,17,45,4.80
2015,08,30,17,47,3.20
2015,08,30,17,48,8.10
2015,08,30,17,49,9.60
2015,08,30,17,50,4.80
2015,08,30,17,51,4.80
2015,08,30,17,52,3.20
2015,08,30,17,53,4.80
2015,08,30,17,54,3.20
2015,08,30,17,55,4.80
2015,08,30,17,56,4.80
2015,08,30,17,57,3.20
2015,08,30,17,58,3.20
2015,08,30,17,59,8.10
2015,08,30,18,00,9.60
2015,08,30,18,01,8.10
2015,08,30,18,02,8.10
2015,08,30,18,03,6.40
2015,08,30,18,04,8.10
2015,08,30,18,05,6.40
2015,08,30,18,06,8.10
2015,08,30,18,07,6.40
2015,08,30,18,08,11.30
2015,08,30,18,09,8.10
2015,08,30,18,10,3.20
2015,08,30,18,11,6.40
2015,08,30,18,12,6.40
2015,08,30,18,13,4.80
2015,08,30,18,14,6.40
2015,08,30,18,15,4.80
2015,08,30,18,16,4.80
2015,08,30,18,17,3.20
2015,08,30,18,18,4.80
2015,08,30,18,19,4.80
2015,08,30,18,20,4.80
2015,08,30,18,21,3.20
2015,08,30,18,22,4.80
2015,08,30,18,23,3.20
2015,08,30,18,24,3.20
2015,08,30,18,26,4.80
2015,08,30,18,27,6.40
2015,08,30,18,28,4.80
2015,08,30,18,29,9.60
2015,08,30,18,30,9.60
2015,08,30,18,31,4.80
2015,08,30,18,32,4.80
2015,08,30,18,33,8.10
2015,08,30,18,34,9.60
2015,08,30,18,35,6.40
2015,08,30,18,36,4.80
2015,08,30,18,37,3.20
2015,08,30,18,38,4.80
2015,08,30,18,39,3.20
2015,08,30,18,40,3.20
2015,08,30,18,41,4.80
2015,08,30,18,42,3.20
2015,08,30,18,43,3.20
2015,08,30,18,44,3.20
2015,08,30,18,45,8.10
2015,08,30,18,46,8.10
2015,08,30,18,47,4.80
2015,08,30,18,48,4.80
2015,08,30,18,49,3.20
2015,08,30,18,50,6.40
2015,08,30,18,51,8.10
2015,08,30,18,52,9.60
2015,08,30,18,53,6.40
2015,08,30,18,54,8.10
2015,08,30,18,55,6.40
2015,08,30,18,56,9.60
2015,08,30,18,57,14.50
2015,08,30,18,58,19.30
2015,08,30,18,59,14.50
2015,08,30,19,00,14.50
2015,08,30,19,01,16.10
2015,08,30,19,02,11.30
2015,08,30,19,03,9.60
2015,08,30,19,04,22.50
2015,08,30,19,05,14.50
2015,08,30,19,06,11.30
2015,08,30,19,07,17.70
2015,08,30,19,08,11.30
2015,08,30,19,09,8.10
2015,08,30,19,10,6.40
2015,08,30,19,11,6.40
2015,08,30,19,12,6.40
2015,08,30,19,13,8.10
2015,08,30,19,14,11.30
2015,08,30,19,15,20.90
2015,08,30,19,16,12.90
2015,08,30,19,17,9.60
2015,08,30,19,18,6.40
2015,08,30,19,19,3.20
2015,08,30,19,20,6.40
2015,08,30,19,21,6.40
2015,08,30,19,22,6.40
2015,08,30,19,23,6.40
2015,08,30,19,24,6.40
2015,08,30,19,25,11.30
2015,08,30,19,26,8.10
2015,08,30,19,27,9.60
2015,08,30,19,28,9.60
2015,08,30,19,29,8.10
2015,08,30,19,30,6.40
2015,08,30,19,31,6.40
2015,08,30,19,32,9.60
2015,08,30,19,33,6.40
2015,08,30,19,34,6.40
2015,08,30,19,35,6.40
2015,08,30,19,36,16.10
2015,08,30,19,37,11.30
2015,08,30,19,38,8.10
2015,08,30,19,39,6.40
2015,08,30,19,40,6.40
2015,08,30,19,41,3.20
2015,08,30,19,42,3.20
2015,08,30,19,43,9.60
2015,08,30,19,44,9.60
2015,08,30,19,45,6.40
2015,08,30,19,46,8.10
2015,08,30,19,47,1.60
2015,08,30,19,48,4.80
2015,08,30,19,49,3.20
2015,08,30,19,50,6.40
2015,08,30,19,52,1.60
2015,08,30,19,53,9.60
2015,08,30,19,54,8.10
2015,08,30,19,55,8.10
2015,08,30,19,56,4.80
2015,08,30,19,57,6.40
2015,08,30,19,58,4.80
2015,08,30,19,59,8.10
2015,08,30,20,00,8.10
2015,08,30,20,01,9.60
2015,08,30,20,02,16.10
2015,08,30,20,03,9.60
2015,08,30,20,04,3.20
2015,08,30,20,05,8.10
2015,08,30,20,06,8.10
2015,08,30,20,07,4.80
2015,08,30,20,11,3.20
2015,08,30,20,14,1.60
2015,08,30,20,15,1.60
2015,08,30,20,16,3.20
2015,08,30,20,17,6.40
2015,08,30,20,18,3.20
2015,08,30,20,19,4.80
2015,08,30,20,20,4.80
2015,08,30,20,21,3.20
2015,08,30,20,22,3.20
2015,08,30,20,24,3.20
2015,08,30,20,25,4.80
2015,08,30,20,26,9.60
2015,08,30,20,27,6.40
2015,08,30,20,28,8.10
2015,08,30,20,29,9.60
2015,08,30,20,30,6.40
2015,08,30,20,31,3.20
2015,08,30,20,32,6.40
2015,08,30,20,33,6.40
2015,08,30,20,34,3.20
2015,08,30,20,35,3.20
2015,08,30,20,36,4.80
2015,08,30,20,37,3.20
2015,08,30,20,38,1.60
2015,08,30,20,40,1.60
2015,08,30,20,41,9.60
2015,08,30,20,42,6.40
2015,08,30,20,43,8.10
2015,08,30,20,44,6.40
2015,08,30,20,45,1.60
2015,08,30,20,46,1.60
2015,08,30,20,47,3.20
2015,08,30,20,48,3.20
2015,08,30,20,52,1.60
2015,08,30,20,53,1.60
2015,08,30,21,01,1.60
2015,08,30,21,02,1.60
2015,08,30,21,05,1.60
2015,08,30,21,09,4.80
2015,08,30,21,10,4.80
2015,08,30,21,12,1.60
2015,08,30,21,13,4.80
2015,08,30,21,14,4.80
2015,08,30,21,15,3.20
2015,08,30,21,16,3.20
2015,08,30,21,17,4.80
2015,08,30,21,18,4.80
2015,08,30,21,19,1.60
2015,08,30,21,20,4.80
2015,08,30,21,21,4.80
2015,08,30,21,22,4.80
2015,08,30,21,23,1.60
2015,08,30,21,24,4.80
2015,08,30,21,25,8.10
2015,08,30,21,26,9.60
2015,08,30,21,27,11.30
2015,08,30,21,28,9.60
2015,08,30,21,29,11.30
2015,08,30,21,30,8.10
2015,08,30,21,31,9.60
2015,08,30,21,32,8.10
2015,08,30,21,33,8.10
2015,08,30,21,34,4.80
2015,08,30,21,35,4.80
2015,08,30,21,36,6.40
2015,08,30,21,37,4.80
2015,08,30,21,38,6.40
2015,08,30,21,39,11.30
2015,08,30,21,40,6.40
2015,08,30,21,41,4.80
2015,08,30,21,42,9.60
2015,08,30,21,43,9.60
2015,08,30,21,44,16.10
2015,08,30,21,45,9.60
2015,08,30,21,46,11.30
2015,08,30,21,47,6.40
2015,08,30,21,48,6.40